Location: Cisewo
(53.3833°N, 14.9000°E)
Time: 12:05:54
(UTC+00:00)

SeaSat 1 - Pass Details

Date: 18 April 2021
Orbit: 744 x 747 km, 108.0° (Epoch: 14 May)

Event Time Altitude Azimuth Distance (km) Brightness Sun altitude
Rises 21:17:50 0° 35° (NE) 3,205 6.1 -21.9°
Reaches altitude 10° 21:20:14 10° 42° (NE) 2,276 5.2 -22.1°
Enters shadow 21:24:37 42° 103° (ESE) 1,063 2.9 -22.4°
